TimeEST,TemperatureF,Dew PointF,Humidity,Sea Level PressureIn,VisibilityMPH,Wind Direction,Wind SpeedMPH,Gust SpeedMPH,PrecipitationIn,Events,Conditions,WindDirDegrees,DateUTC
12:53 AM,60.1,55.9,86,30.07,10.0,Calm,Calm,-,N/A,,Clear,0,2011-11-15 05:53:00
1:53 AM,60.1,57.0,90,30.06,10.0,SSW,4.6,-,N/A,,Clear,200,2011-11-15 06:53:00
2:53 AM,59.0,57.0,93,30.05,10.0,SSW,4.6,-,N/A,,Clear,200,2011-11-15 07:53:00
3:53 AM,57.9,55.9,93,30.05,6.0,Calm,Calm,-,N/A,,Clear,0,2011-11-15 08:53:00
4:24 AM,57.2,55.4,94,30.05,6.0,SSW,3.5,-,N/A,,Scattered Clouds,200,2011-11-15 09:24:00
4:37 AM,59.0,57.2,94,30.06,6.0,SSW,3.5,-,N/A,,Mostly Cloudy,200,2011-11-15 09:37:00
4:53 AM,59.0,57.9,96,30.06,7.0,SSW,3.5,-,N/A,,Overcast,200,2011-11-15 09:53:00
5:09 AM,59.0,57.2,94,30.07,5.0,SW,4.6,-,N/A,,Overcast,230,2011-11-15 10:09:00
5:23 AM,59.0,57.2,94,30.07,1.8,Calm,Calm,-,N/A,,Overcast,0,2011-11-15 10:23:00
5:31 AM,59.0,57.2,94,30.07,1.0,Calm,Calm,-,N/A,,Overcast,0,2011-11-15 10:31:00
5:40 AM,59.0,57.2,94,30.07,0.8,Calm,Calm,-,N/A,,Overcast,0,2011-11-15 10:40:00
5:53 AM,59.0,59.0,100,30.07,0.8,Calm,Calm,-,N/A,,Mist,0,2011-11-15 10:53:00
6:53 AM,60.1,59.0,96,30.07,1.0,Calm,Calm,-,N/A,,Mist,0,2011-11-15 11:53:00
7:58 AM,62.6,60.8,94,30.08,3.0,South,6.9,-,N/A,,Overcast,180,2011-11-15 12:58:00
8:37 AM,62.6,62.6,100,30.08,4.0,SSW,4.6,-,N/A,,Overcast,200,2011-11-15 13:37:00
8:43 AM,64.4,62.6,94,30.08,5.0,SSW,4.6,-,N/A,,Mostly Cloudy,210,2011-11-15 13:43:00
8:53 AM,64.0,63.0,96,30.08,6.0,SW,4.6,-,N/A,,Mostly Cloudy,220,2011-11-15 13:53:00
9:39 AM,69.8,64.4,83,30.08,10.0,SW,6.9,-,N/A,,Mostly Cloudy,220,2011-11-15 14:39:00
9:53 AM,71.1,64.0,78,30.07,10.0,SW,9.2,-,N/A,,Scattered Clouds,220,2011-11-15 14:53:00
10:53 AM,73.9,64.0,71,30.06,10.0,SW,11.5,-,N/A,,Scattered Clouds,220,2011-11-15 15:53:00
11:53 AM,77.0,64.0,64,30.04,10.0,WSW,13.8,20.7,N/A,,Partly Cloudy,240,2011-11-15 16:53:00
12:10 PM,78.8,64.4,61,30.04,10.0,WSW,12.7,17.3,N/A,,Mostly Cloudy,250,2011-11-15 17:10:00
12:33 PM,78.8,64.4,61,30.02,10.0,SW,12.7,-,N/A,,Mostly Cloudy,220,2011-11-15 17:33:00
12:53 PM,80.1,64.0,58,30.01,10.0,SW,10.4,-,N/A,,Mostly Cloudy,220,2011-11-15 17:53:00
1:53 PM,80.1,63.0,56,29.99,10.0,SW,11.5,19.6,N/A,,Scattered Clouds,220,2011-11-15 18:53:00
2:53 PM,80.1,64.0,58,29.96,10.0,South,10.4,-,N/A,,Partly Cloudy,170,2011-11-15 19:53:00
3:53 PM,78.1,64.0,62,29.96,10.0,South,6.9,-,N/A,,Clear,180,2011-11-15 20:53:00
4:53 PM,75.9,64.0,67,29.96,10.0,South,6.9,-,N/A,,Clear,190,2011-11-15 21:53:00
5:53 PM,73.0,64.0,73,29.97,10.0,South,3.5,-,N/A,,Clear,170,2011-11-15 22:53:00
6:53 PM,70.0,64.0,81,29.99,10.0,SE,5.8,-,N/A,,Clear,140,2011-11-15 23:53:00
7:53 PM,69.1,64.9,87,29.99,8.0,South,5.8,-,N/A,,Clear,180,2011-11-16 00:53:00
8:53 PM,69.1,66.0,90,30.01,8.0,South,5.8,-,N/A,,Clear,170,2011-11-16 01:53:00
9:26 PM,68.0,66.2,94,30.00,6.0,South,4.6,-,N/A,,Scattered Clouds,170,2011-11-16 02:26:00
9:37 PM,68.0,66.2,94,30.00,6.0,South,4.6,-,N/A,,Mostly Cloudy,170,2011-11-16 02:37:00
9:53 PM,66.9,66.0,97,30.00,6.0,South,3.5,-,N/A,,Mostly Cloudy,180,2011-11-16 02:53:00
10:03 PM,66.2,66.2,100,30.00,6.0,SSE,3.5,-,N/A,,Partly Cloudy,160,2011-11-16 03:03:00
10:53 PM,66.9,64.9,93,29.99,8.0,SSW,3.5,-,N/A,,Clear,200,2011-11-16 03:53:00
11:27 PM,66.2,64.4,94,29.99,7.0,Calm,Calm,-,N/A,,Partly Cloudy,0,2011-11-16 04:27:00
11:44 PM,66.2,66.2,100,29.99,8.0,South,3.5,-,N/A,,Mostly Cloudy,180,2011-11-16 04:44:00
11:53 PM,66.9,66.0,97,29.97,7.0,South,5.8,-,N/A,,Mostly Cloudy,170,2011-11-16 04:53:00